Regional Weather Roundup
Issued by NWS State College, PA

Home | Current Version | Previous Version | Graphics & Text | Print | Product List | Glossary On
Versions: 1 2 3 4 5 6 7 8 9 10 11 12 13 14 15 16 17 18 19 20 21 22 23 24 25 26 27 28 29 30 31 32 33 34 35 36 37 38 39 40 41 42 43 44 45 46 47 48 49 50
000
ASUS41 KCTP 171610
RWRCTP

REGIONAL WEATHER ROUNDUP
NATIONAL WEATHER SERVICE STATE COLLEGE PA
1100 AM EST SUN DEC 17 2017

Note: "fair" indicates few or no clouds below 12,000 feet with no
significant weather and/or obstructions to visibility.

* = STATION THAT DOES NOT REPORT PRECIPITATION /E.G. RAIN...SNOW...ETC/
    THUNDER OR FOG.

PAZ002>004-007>009-013>016-020>023-029>032-171700-
WESTERN PENNSYLVANIA

CITY           SKY/WX    TMP DP  RH WIND       PRES   REMARKS
ERIE           PTSUNNY   27  23  85 E3        30.23S
MEADVILLE      CLOUDY    26  25  96 E3        30.19S FOG
FRANKLIN*      CLOUDY    26  24  92 E5        30.19F FOG
NEW CASTLE     FAIR      29  28  96 CALM      30.21S FOG
BEAVER COUNTY  SUNNY     36  28  75 SW5       30.19F
BUTLER*        CLOUDY    35  27  72 S5        30.20F
PITTSBURGH INT CLOUDY    39  29  67 CALM      30.19F
PITTSBURGH     CLOUDY    36  26  67 S6        30.20S
INDIANA*       SUNNY     36  28  75 SW7       30.26R
LATROBE        SUNNY     39  28  65 SW9       30.26R
WASHINGTON CO* CLOUDY    39  29  67 S7        30.24F
$$

PAZ004>006-010>012-017>019-024>028-033>037-041-042-045-046-049>053-171700-
CENTRAL PENNSYLVANIA

CITY           SKY/WX    TMP DP  RH WIND       PRES   REMARKS
BRADFORD       CLOUDY    28  28 100 SE3       30.17R FOG
DUBOIS         CLOUDY    27  24  89 E3        30.18R FOG
CLEARFIELD     CLOUDY    26  25  96 CALM      30.21F FOG
JOHNSTOWN      CLOUDY    35  27  72 SW9       30.19R
ALTOONA        CLOUDY    38  30  73 S5        30.22R
STATE COLLEGE  SUNNY     30  27  86 CALM      30.22F
WILLIAMSPORT   CLOUDY    37  26  64 CALM      30.27R
SELINSGROVE    CLOUDY    34  27  75 E5        30.27R
FT INDIANTOWN  CLOUDY    36  29  75 NE5       30.27R
CAPITAL CITY   PTSUNNY   36  27  69 CALM      30.28R
HARRISBURG     CLOUDY    34  28  79 CALM      30.27R
YORK           CLOUDY    36  29  75 CALM      30.26R
$$

PAZ038>040-043-044-047-048-054-055-060>062-067>071-171700-
EASTERN PENNSYLVANIA

CITY           SKY/WX    TMP DP  RH WIND       PRES   REMARKS
SCRANTON       CLOUDY    29  21  72 N5        30.23F
MOUNT POCONO   CLOUDY    28  24  85 CALM      30.17F
ALLENTOWN      CLOUDY    34  24  67 NE5       30.28S
QUAKERTOWN*    CLOUDY    34  25  69 CALM      30.28R
READING        CLOUDY    36  29  75 CALM      30.27R
LANCASTER      CLOUDY    35  30  82 E3        30.27R
COATESVILLE    MOSUNNY   36  28  75 VRB3      30.27R
POTTSTOWN      CLOUDY    34  24  67 NE3       30.29S
BLUE BELL      CLOUDY    36  27  69 E3        30.30R
DOYLESTOWN     PTSUNNY   35  23  61 CALM      30.27S
WILLOW GROVE   NOT AVBL
NORTH PHILA    CLOUDY    41  28  60 E5        30.30S
PHILADELPHIA   CLOUDY    40  27  59 NE6       30.29S
$$




USA.gov is the U.S. government's official web portal to all federal, state and local government web resources and services.